Regional Weather Roundup
Issued by NWS

Home | Current Version | Previous Version | Graphics & Text | Print | Product List | Glossary Off
Versions: 1 2 3 4 5 6 7 8 9 10 11 12 13 14 15 16 17 18 19 20 21 22 23 24 25 26 27 28 29 30 31 32 33 34 35 36 37 38 39 40 41 42 43 44 45 46 47 48 49 50

000
ASUS43 KIND 010359
RWRIN

WEATHER ROUNDUP FOR INDIANA
NATIONAL WEATHER SERVICE INDIANAPOLIS IN
1200 AM EDT TUE SEP 01 2015

NOTE: "FAIR" INDICATES FEW OR NO CLOUDS BELOW 12,000 FEET WITH NO
SIGNIFICANT WEATHER AND/OR OBSTRUCTIONS TO VISIBILITY.

* - STATION DOES NOT REPORT WEATHER SUCH AS PRECIPITATION OR FOG.

+ - STATION NOT QUALITY CONTROLLED BY THE NATIONAL WEATHER SERVICE.
    USE DATA WITH CAUTION...ESPECIALLY DEWPOINT AND RELATIVE
    HUMIDITY OBSERVATIONS.

INZ001>003-010>013-019-020-010500-
NORTHWEST INDIANA

CITY           SKY/WX    TMP DP  RH WIND       PRES   REMARKS
KNOX *+        CLEAR     68  68 100 CALM      30.06S
MONTICELLO +   CLEAR     72  70  93 S3        30.07S
RENSSELAER +   CLEAR     70  70 100 CALM      30.07S

$$

LMZ046-743>745-010500-
SOUTHERN LAKE MICHIGAN

STATION/POSITION TIME  TEMP    WIND        PRES    WAVE
                       AIR SEA DIR/SP/G            HT
                 (UTC) (F)     (DEG/KT/KT) (MB)    (FT)
BURNS HARBOR     0300   78     160/  5/  7 1017.9R
MICHIGAN CITY    0300   75     120/  5/  6   N/A
5NW MICH CITY    0300   74 72  170/  4/  4   N/A     0

$$

INZ004-005-014>016-021>024-010500-
NORTH CENTRAL INDIANA

CITY           SKY/WX    TMP DP  RH WIND       PRES   REMARKS
GOSHEN         PTCLDY    71  68  90 CALM      30.08R FOG
SOUTH BEND     PTCLDY    72  68  87 S3        30.08R

$$

INZ006>009-017-018-025>027-010500-
NORTHEAST INDIANA

CITY           SKY/WX    TMP DP  RH WIND       PRES   REMARKS
ANGOLA *+      CLOUDY    66  57  72 CALM      30.09S VSB 1/4
FORT WAYNE     PTCLDY    72  68  87 SW6       30.10R

$$

INZ028-029-035-036-043>045-051>053-010500-
WEST CENTRAL INDIANA

CITY           SKY/WX    TMP DP  RH WIND       PRES   REMARKS
CRAWFORDSVL +  CLEAR     65  65 100 CALM      30.09S
GREENCASTLE +  CLEAR     68  64  88 CALM      30.10S FOG
LAFAYETTE      CLEAR     71  68  90 CALM      30.07S
TERRE HAUTE    CLEAR     69  66  90 CALM      30.08S

$$

INZ030>032-037>040-046>048-054>057-064-065-010500-
CENTRAL INDIANA

CITY           SKY/WX    TMP DP  RH WIND       PRES   REMARKS
FRANKFORT +    CLEAR    N/A N/A N/A S3        30.11S
GREENWOOD *+   CLEAR     70  66  88 CALM      30.11S
INDIANAPOLIS   PTCLDY    74  67  78 S6        30.09S
-EAGLE CREEK   CLEAR     73  68  84 CALM      30.09S
KOKOMO *+      PTCLDY    70  63  78 S5        30.09S
MT COMFORT *+  CLEAR     68  68 100 CALM      30.11S
SHELBYVILLE    CLEAR     70  66  87 CALM      30.10S
ZIONSVILLE +   CLEAR     69  65  88 CALM      30.11S

$$

INZ033-034-041-042-049-050-058-059-010500-
EAST CENTRAL INDIANA

CITY           SKY/WX    TMP DP  RH WIND       PRES   REMARKS
MUNCIE         PTCLDY    70  66  87 NE3       30.11S

$$

INZ060-061-067>069-081>083-085>088-010500-
SOUTHWEST INDIANA

CITY           SKY/WX    TMP DP  RH WIND       PRES   REMARKS
EVANSVILLE     PTCLDY    74  68  81 CALM      30.09S
HUNTINGBURG *+ CLEAR     72  64  78 SE3       30.10S

$$

INZ062-063-066-070>080-084-089>092-010500-
SOUTH CENTRAL AND SOUTHEAST INDIANA

CITY           SKY/WX    TMP DP  RH WIND       PRES   REMARKS
BLOOMINGTON    CLEAR     69  67  93 CALM      30.11S
MADISON *+     CLEAR     68  64  88 CALM      30.13S
SEYMOUR +      CLEAR     68  66  94 CALM      30.10S

$$



USA.gov is the U.S. government's official web portal to all federal, state and local government web resources and services.